Location: St. Louis
(38.6270°N, 90.1994°W)
Time: 22:25:03
(UTC-05:00)

RS-15 - Pass Details

Date: 27 January 2022
Orbit: 1881 x 2163 km, 64.8° (Epoch: 19 May)

Event Time Altitude Azimuth Distance (km) Brightness Sun altitude
Rises 22:37:31 0° 308° (NW) 5,594 10.9 -60.8°
Reaches altitude 10° 22:42:42 10° 326° (NW) 4,632 10.3 -61.6°
Enters shadow 22:49:25 19° 0° (N) 3,970 9.7 -62.6°
